,,PA_Meas_PMT16A,,PR_Meas_QMR101_102,,RH_Meas_QMH101,,SR_Meas_QMS101,,TA_Meas_QMH101,,GenWind,,GenWind,
time,status,PA,status,PR,status,RH,status,SR,status,TA,status,DirAvg,status,SpdAvg,
2010-04-30, 00:00:04,VALID,918.336,VALID,0,VALID,95.8873,VALID,0.107441,VALID,22.5299,VALID,48,VALID,0,
2010-04-30, 00:01:04,VALID,918.299,VALID,0,VALID,95.8721,VALID,0.107441,VALID,22.5086,VALID,47,VALID,0,
2010-04-30, 00:02:04,VALID,918.293,VALID,0,VALID,95.8873,VALID,0,VALID,22.5299,VALID,47,VALID,0.412109,
2010-04-30, 00:03:04,VALID,918.264,VALID,0,VALID,95.8492,VALID,0,VALID,22.5103,VALID,47,VALID,0.539844,
2010-04-30, 00:04:04,VALID,918.261,VALID,0,VALID,95.8492,VALID,0,VALID,22.5103,VALID,47,VALID,0.5,
2010-04-30, 00:05:04,VALID,918.32,VALID,0,VALID,95.8873,VALID,0.107441,VALID,22.4908,VALID,47,VALID,0.525,
2010-04-30, 00:06:04,VALID,918.338,VALID,0,VALID,95.8187,VALID,0.107441,VALID,22.4713,VALID,47,VALID,0.683594,
2010-04-30, 00:07:04,VALID,918.337,VALID,0,VALID,95.7577,VALID,0,VALID,22.4128,VALID,47,VALID,0.637109,
2010-04-30, 00:08:04,VALID,918.364,VALID,0,VALID,95.9636,VALID,0,VALID,22.4323,VALID,47,VALID,0.583203,
2010-04-30, 00:09:04,VALID,918.375,VALID,0,VALID,96.0245,VALID,0,VALID,22.4925,VALID,47,VALID,0.357812,
2010-04-30, 00:10:04,VALID,918.402,VALID,0,VALID,96.0398,VALID,0,VALID,22.4713,VALID,47,VALID,0.290625,
2010-04-30, 00:11:04,VALID,918.462,VALID,0,VALID,96.0855,VALID,0.107441,VALID,22.4696,VALID,47,VALID,0.199219,
2010-04-30, 00:12:04,VALID,918.46,VALID,0,VALID,96.0703,VALID,0,VALID,22.4908,VALID,47,VALID,0,
2010-04-30, 00:13:04,VALID,918.479,VALID,0,VALID,96.0932,VALID,0,VALID,22.5103,VALID,47,VALID,0.308594,
2010-04-30, 00:14:04,VALID,918.488,VALID,0,VALID,96.0855,VALID,0,VALID,22.5103,VALID,47,VALID,0.218359,
2010-04-30, 00:15:04,VALID,918.466,VALID,0,VALID,96.055,VALID,0,VALID,22.5103,VALID,47,VALID,0.346875,
2010-04-30, 00:16:04,VALID,918.448,VALID,0,VALID,96.0474,VALID,0,VALID,22.4891,VALID,47,VALID,0.333594,
2010-04-30, 00:17:04,VALID,918.473,VALID,0,VALID,96.0474,VALID,0.107441,VALID,22.5103,VALID,47,VALID,0.646094,
2010-04-30, 00:18:04,VALID,918.441,VALID,0,VALID,96.0398,VALID,0.107441,VALID,22.5103,VALID,47,VALID,0.372656,
2010-04-30, 00:19:04,VALID,918.428,VALID,0,VALID,95.9559,VALID,0,VALID,22.4908,VALID,47,VALID,0.609766,
2010-04-30, 00:20:04,VALID,918.413,VALID,0,VALID,95.773,VALID,0.107441,VALID,22.4323,VALID,47,VALID,0.472656,
2010-04-30, 00:21:04,VALID,918.403,VALID,0,VALID,95.6967,VALID,0.107441,VALID,22.4111,VALID,47,VALID,0.236328,
2010-04-30, 00:22:04,VALID,918.432,VALID,0,VALID,95.834,VALID,0.107441,VALID,22.4713,VALID,47,VALID,0.403125,
2010-04-30, 00:23:04,VALID,918.457,VALID,0,VALID,95.9559,VALID,0,VALID,22.5299,VALID,47,VALID,0.460938,
2010-04-30, 00:24:04,VALID,918.462,VALID,0,VALID,96.0398,VALID,0.107441,VALID,22.4891,VALID,47,VALID,0.35625,
2010-04-30, 00:25:04,VALID,918.463,VALID,0,VALID,96.1084,VALID,0,VALID,22.5103,VALID,47,VALID,0.217187,
2010-04-30, 00:26:04,VALID,918.506,VALID,0,VALID,95.9254,VALID,0.107441,VALID,22.4518,VALID,47,VALID,0.169531,
2010-04-30, 00:27:04,VALID,918.527,VALID,0,VALID,95.8568,VALID,0,VALID,22.3933,VALID,47,VALID,0.116797,
2010-04-30, 00:28:04,VALID,918.508,VALID,0,VALID,95.8645,VALID,0,VALID,22.372,VALID,47,VALID,0.0417969,
2010-04-30, 00:29:04,VALID,918.491,VALID,0,VALID,96.0779,VALID,0.107441,VALID,22.4713,VALID,47,VALID,0.289453,
2010-04-30, 00:30:04,VALID,918.459,VALID,0,VALID,96.1008,VALID,0,VALID,22.4713,VALID,47,VALID,0.582031,
2010-04-30, 00:31:04,VALID,918.444,VALID,0,VALID,96.116,VALID,0,VALID,22.5103,VALID,47,VALID,0.829297,
2010-04-30, 00:32:04,VALID,918.389,VALID,0,VALID,96.0627,VALID,0,VALID,22.5086,VALID,47,VALID,0.425,
2010-04-30, 00:33:04,VALID,918.32,VALID,0,VALID,96.0855,VALID,0,VALID,22.5086,VALID,47,VALID,0.291016,
2010-04-30, 00:34:04,VALID,918.312,VALID,0,VALID,96.1313,VALID,0,VALID,22.5494,VALID,47,VALID,0.813281,
2010-04-30, 00:35:04,VALID,918.246,VALID,0,VALID,96.1618,VALID,0,VALID,22.5086,VALID,47,VALID,0.708594,
2010-04-30, 00:36:04,VALID,918.252,VALID,0,VALID,96.1923,VALID,0.107441,VALID,22.5299,VALID,47,VALID,0.674609,
2010-04-30, 00:37:04,VALID,918.22,VALID,0,VALID,96.2228,VALID,0,VALID,22.5103,VALID,47,VALID,0.685547,
2010-04-30, 00:38:04,VALID,918.267,VALID,0,VALID,96.2761,VALID,0,VALID,22.5103,VALID,47,VALID,0.404297,
2010-04-30, 00:39:04,VALID,918.235,VALID,0,VALID,96.299,VALID,0,VALID,22.5086,VALID,47,VALID,0.221875,
2010-04-30, 00:40:04,VALID,918.244,VALID,0,VALID,96.3219,VALID,0,VALID,22.5103,VALID,47,VALID,0.0488281,
2010-04-30, 00:41:04,VALID,918.273,VALID,0,VALID,96.36,VALID,0,VALID,22.5494,VALID,47,VALID,0.658594,
2010-04-30, 00:42:04,VALID,918.32,VALID,0,VALID,96.3219,VALID,0,VALID,22.5477,VALID,47,VALID,0.778516,
2010-04-30, 00:43:04,VALID,918.331,VALID,0,VALID,96.2533,VALID,0.107441,VALID,22.5281,VALID,47,VALID,0.455078,
2010-04-30, 00:44:04,VALID,918.344,VALID,0,VALID,96.2609,VALID,0.107441,VALID,22.5299,VALID,47,VALID,0.158203,
2010-04-30, 00:45:04,VALID,918.321,VALID,0,VALID,96.238,VALID,0,VALID,22.5086,VALID,47,VALID,0.00351562,
2010-04-30, 00:46:04,VALID,918.316,VALID,0,VALID,96.2151,VALID,0,VALID,22.5103,VALID,47,VALID,0.271875,
2010-04-30, 00:47:04,VALID,918.316,VALID,0,VALID,96.2456,VALID,0,VALID,22.5103,VALID,47,VALID,0,
2010-04-30, 00:48:04,VALID,918.325,VALID,0,VALID,96.2685,VALID,0,VALID,22.5086,VALID,47,VALID,0.638672,
2010-04-30, 00:49:04,VALID,918.313,VALID,0,VALID,96.2761,VALID,0.107441,VALID,22.5299,VALID,47,VALID,0.937891,
2010-04-30, 00:50:04,VALID,918.282,VALID,0,VALID,96.3142,VALID,0.107441,VALID,22.5299,VALID,47,VALID,0.288672,
2010-04-30, 00:51:04,VALID,918.265,VALID,0,VALID,96.3524,VALID,0,VALID,22.5299,VALID,47,VALID,0.573828,
2010-04-30, 00:52:04,VALID,918.287,VALID,0,VALID,96.3829,VALID,0.107441,VALID,22.5494,VALID,47,VALID,0.361328,
2010-04-30, 00:53:04,VALID,918.269,VALID,0,VALID,96.3981,VALID,0.107441,VALID,22.5494,VALID,47,VALID,0.509375,
2010-04-30, 00:54:04,VALID,918.236,VALID,0,VALID,96.421,VALID,0,VALID,22.5477,VALID,47,VALID,0.205859,
2010-04-30, 00:55:04,VALID,918.282,VALID,0,VALID,96.4133,VALID,0,VALID,22.5884,VALID,47,VALID,0.243359,
2010-04-30, 00:56:04,VALID,918.282,VALID,0,VALID,96.3905,VALID,0,VALID,22.5884,VALID,47,VALID,0.417188,
2010-04-30, 00:57:04,VALID,918.27,VALID,0,VALID,96.4057,VALID,0,VALID,22.5867,VALID,47,VALID,0.684766,
2010-04-30, 00:58:04,VALID,918.308,VALID,0,VALID,96.3905,VALID,0.107441,VALID,22.5689,VALID,47,VALID,0.964453,
2010-04-30, 00:59:04,VALID,918.325,VALID,0,VALID,96.4362,VALID,0,VALID,22.5884,VALID,47,VALID,0.942969,
2010-04-30, 01:00:04,VALID,918.26,VALID,0,VALID,96.299,VALID,0.107441,VALID,22.5281,VALID,47,VALID,0.765625,
2010-04-30, 01:01:04,VALID,918.272,VALID,0,VALID,96.4819,VALID,0,VALID,22.5672,VALID,47,VALID,0.639453,
2010-04-30, 01:02:04,VALID,918.218,VALID,0,VALID,96.5582,VALID,0.107441,VALID,22.647,VALID,47,VALID,0.0121094,
2010-04-30, 01:03:04,VALID,918.217,VALID,0,VALID,96.5963,VALID,0,VALID,22.7055,VALID,47,VALID,0,
2010-04-30, 01:04:04,VALID,918.157,VALID,0,VALID,96.5734,VALID,0,VALID,22.6843,VALID,47,VALID,0,
2010-04-30, 01:05:04,VALID,918.139,VALID,0,VALID,96.5658,VALID,0,VALID,22.686,VALID,47,VALID,0.348437,
2010-04-30, 01:06:04,VALID,918.13,VALID,0,VALID,96.5277,VALID,0,VALID,22.647,VALID,47,VALID,0.532031,
2010-04-30, 01:07:04,VALID,918.119,VALID,0,VALID,96.4896,VALID,0,VALID,22.6274,VALID,47,VALID,0.820313,
2010-04-30, 01:08:04,VALID,918.134,VALID,0,VALID,96.5429,VALID,0,VALID,22.6274,VALID,47,VALID,0.274609,
2010-04-30, 01:09:04,VALID,918.102,VALID,0,VALID,96.5658,VALID,0.107441,VALID,22.647,VALID,48,VALID,0,
2010-04-30, 01:10:04,VALID,918.138,VALID,0,VALID,96.5658,VALID,0.107441,VALID,22.647,VALID,47,VALID,0,
2010-04-30, 01:11:04,VALID,918.128,VALID,0,VALID,96.5811,VALID,0.107441,VALID,22.647,VALID,47,VALID,0,
2010-04-30, 01:12:04,VALID,918.101,VALID,0,VALID,96.5734,VALID,0.107441,VALID,22.6257,VALID,47,VALID,0.552344,
2010-04-30, 01:13:04,VALID,918.103,VALID,0,VALID,96.4819,VALID,0.107441,VALID,22.5867,VALID,47,VALID,0.176953,
2010-04-30, 01:14:04,VALID,918.07,VALID,0,VALID,96.5734,VALID,0,VALID,22.6079,VALID,47,VALID,0.165625,
2010-04-30, 01:15:04,VALID,918.064,VALID,0,VALID,96.6344,VALID,0,VALID,22.6665,VALID,47,VALID,0.01875,
2010-04-30, 01:16:04,VALID,918.043,VALID,0,VALID,96.6039,VALID,0,VALID,22.6665,VALID,47,VALID,0,
2010-04-30, 01:17:04,VALID,918.06,VALID,0,VALID,96.6192,VALID,0,VALID,22.6647,VALID,47,VALID,0.0527344,
2010-04-30, 01:18:04,VALID,918.022,VALID,0,VALID,96.5811,VALID,0.107441,VALID,22.6257,VALID,47,VALID,0.319531,
2010-04-30, 01:19:04,VALID,918.046,VALID,0,VALID,96.5734,VALID,0,VALID,22.6257,VALID,47,VALID,0.126953,
2010-04-30, 01:20:04,VALID,918.025,VALID,0,VALID,96.5811,VALID,0.107441,VALID,22.6274,VALID,47,VALID,0.357812,
2010-04-30, 01:21:04,VALID,918.027,VALID,0,VALID,96.6268,VALID,0,VALID,22.6665,VALID,47,VALID,0.223047,
2010-04-30, 01:22:04,VALID,918.014,VALID,0,VALID,96.5887,VALID,0,VALID,22.647,VALID,47,VALID,0.284375,
2010-04-30, 01:23:04,VALID,918.023,VALID,0,VALID,96.6039,VALID,0.107441,VALID,22.6452,VALID,47,VALID,0.208203,
2010-04-30, 01:24:04,VALID,918.001,VALID,0,VALID,96.5506,VALID,0.107441,VALID,22.6257,VALID,47,VALID,0.318359,
2010-04-30, 01:25:04,VALID,917.964,VALID,0,VALID,96.5811,VALID,0,VALID,22.647,VALID,47,VALID,0.303516,
2010-04-30, 01:26:04,VALID,917.961,VALID,0,VALID,96.6039,VALID,0.107441,VALID,22.647,VALID,47,VALID,0.291016,
2010-04-30, 01:27:04,VALID,917.965,VALID,0,VALID,96.6115,VALID,0,VALID,22.6665,VALID,47,VALID,0.432422,
2010-04-30, 01:28:04,VALID,917.988,VALID,0,VALID,96.6192,VALID,0,VALID,22.686,VALID,47,VALID,0.517187,
2010-04-30, 01:29:04,VALID,917.984,VALID,0,VALID,96.5734,VALID,0,VALID,22.6665,VALID,47,VALID,0.595703,
2010-04-30, 01:30:04,VALID,917.968,VALID,0,VALID,96.642,VALID,0,VALID,22.686,VALID,47,VALID,0.432031,
2010-04-30, 01:31:04,VALID,918.003,VALID,0,VALID,96.642,VALID,0.107441,VALID,22.7055,VALID,47,VALID,0.521875,
2010-04-30, 01:32:04,VALID,918.007,VALID,0,VALID,96.5048,VALID,0,VALID,22.647,VALID,47,VALID,0.410156,
2010-04-30, 01:33:04,VALID,917.949,VALID,0,VALID,96.5887,VALID,0,VALID,22.6257,VALID,47,VALID,0.541406,
2010-04-30, 01:34:04,VALID,917.924,VALID,0,VALID,96.4972,VALID,0,VALID,22.6274,VALID,47,VALID,0.660156,
2010-04-30, 01:35:04,VALID,917.89,VALID,0,VALID,96.5048,VALID,0.107441,VALID,22.6079,VALID,47,VALID,0.558984,
2010-04-30, 01:36:04,VALID,917.856,VALID,0,VALID,96.5124,VALID,0,VALID,22.5884,VALID,47,VALID,0.530078,
2010-04-30, 01:37:04,VALID,917.852,VALID,0,VALID,96.4972,VALID,0,VALID,22.5672,VALID,47,VALID,0.16875,
2010-04-30, 01:38:04,VALID,917.83,VALID,0,VALID,96.4972,VALID,0,VALID,22.5884,VALID,47,VALID,0.126172,
2010-04-30, 01:39:04,VALID,917.806,VALID,0,VALID,96.5429,VALID,0,VALID,22.5884,VALID,47,VALID,0.147266,
2010-04-30, 01:40:04,VALID,917.802,VALID,0,VALID,96.642,VALID,0,VALID,22.6487,VALID,47,VALID,0.349609,
2010-04-30, 01:41:04,VALID,917.809,VALID,0,VALID,96.5887,VALID,0,VALID,22.6274,VALID,47,VALID,0,
2010-04-30, 01:42:04,VALID,917.799,VALID,0,VALID,96.6039,VALID,0,VALID,22.6062,VALID,47,VALID,0.373437,
2010-04-30, 01:43:04,VALID,917.813,VALID,0,VALID,96.5811,VALID,0,VALID,22.647,VALID,47,VALID,0.291016,
2010-04-30, 01:44:04,VALID,917.8,VALID,0,VALID,96.5277,VALID,0,VALID,22.6079,VALID,47,VALID,0.698047,
2010-04-30, 01:45:04,VALID,917.79,VALID,0,VALID,96.5658,VALID,0,VALID,22.6079,VALID,47,VALID,0.810156,
2010-04-30, 01:46:04,VALID,917.794,VALID,0,VALID,96.5734,VALID,0,VALID,22.6257,VALID,47,VALID,0.944531,
2010-04-30, 01:47:04,VALID,917.82,VALID,0,VALID,96.5811,VALID,0,VALID,22.647,VALID,47,VALID,0.956641,
2010-04-30, 01:48:04,VALID,917.776,VALID,0,VALID,96.5734,VALID,0,VALID,22.6062,VALID,47,VALID,0.975781,
2010-04-30, 01:49:04,VALID,917.803,VALID,0,VALID,96.5734,VALID,0,VALID,22.647,VALID,47,VALID,0.835547,
2010-04-30, 01:50:04,VALID,917.785,VALID,0,VALID,96.5734,VALID,0,VALID,22.6274,VALID,47,VALID,0.910937,
2010-04-30, 01:51:04,VALID,917.785,VALID,0,VALID,96.5582,VALID,0,VALID,22.647,VALID,47,VALID,0.614453,
2010-04-30, 01:52:04,VALID,917.77,VALID,0,VALID,96.5429,VALID,0,VALID,22.6274,VALID,47,VALID,0.498047,
2010-04-30, 01:53:04,VALID,917.755,VALID,0,VALID,96.5201,VALID,0.107441,VALID,22.5672,VALID,47,VALID,0.265625,
2010-04-30, 01:54:04,VALID,917.762,VALID,0,VALID,96.5048,VALID,0.107441,VALID,22.5672,VALID,47,VALID,0.401172,
2010-04-30, 01:55:04,VALID,917.732,VALID,0,VALID,96.5582,VALID,0.107441,VALID,22.5884,VALID,47,VALID,0.511719,
2010-04-30, 01:56:04,VALID,917.705,VALID,0,VALID,96.5201,VALID,0.107441,VALID,22.5689,VALID,47,VALID,0.350391,
2010-04-30, 01:57:04,VALID,917.717,VALID,0,VALID,96.5582,VALID,0,VALID,22.5689,VALID,47,VALID,0.394922,
2010-04-30, 01:58:04,VALID,917.744,VALID,0,VALID,96.5277,VALID,0,VALID,22.5494,VALID,47,VALID,0.326953,
2010-04-30, 01:59:04,VALID,917.695,VALID,0,VALID,96.5353,VALID,0,VALID,22.5299,VALID,47,VALID,0.254687,
2010-04-30, 02:00:04,VALID,917.691,VALID,0,VALID,96.5811,VALID,0,VALID,22.5477,VALID,47,VALID,0.252344,
2010-04-30, 02:01:04,VALID,917.669,VALID,0,VALID,96.6039,VALID,0,VALID,22.5494,VALID,47,VALID,0.261328,
2010-04-30, 02:02:04,VALID,917.671,VALID,0,VALID,96.5658,VALID,0.107441,VALID,22.4891,VALID,47,VALID,0.30625,
2010-04-30, 02:03:04,VALID,917.625,VALID,0,VALID,96.5658,VALID,0,VALID,22.5299,VALID,47,VALID,0.351172,
2010-04-30, 02:04:04,VALID,917.576,VALID,0,VALID,96.5582,VALID,0.107441,VALID,22.4891,VALID,47,VALID,0.135156,
2010-04-30, 02:05:04,VALID,917.596,VALID,0,VALID,96.5887,VALID,0,VALID,22.5103,VALID,47,VALID,0.203906,
2010-04-30, 02:06:04,VALID,917.594,VALID,0,VALID,96.5963,VALID,0,VALID,22.4891,VALID,47,VALID,0.0707031,
2010-04-30, 02:07:04,VALID,917.536,VALID,0,VALID,96.5811,VALID,0,VALID,22.4696,VALID,47,VALID,0.188672,
2010-04-30, 02:08:04,VALID,917.56,VALID,0,VALID,96.6115,VALID,0,VALID,22.4908,VALID,47,VALID,0.142969,
2010-04-30, 02:09:04,VALID,917.534,VALID,0,VALID,96.6039,VALID,0,VALID,22.4696,VALID,47,VALID,0,
2010-04-30, 02:10:04,VALID,917.53,VALID,0,VALID,96.6497,VALID,0,VALID,22.5299,VALID,47,VALID,0.29375,
2010-04-30, 02:11:04,VALID,917.513,VALID,0,VALID,96.6344,VALID,0,VALID,22.5103,VALID,47,VALID,0.297656,
2010-04-30, 02:12:04,VALID,917.528,VALID,0,VALID,96.6497,VALID,0,VALID,22.5299,VALID,47,VALID,0.28125,
2010-04-30, 02:13:04,VALID,917.508,VALID,0,VALID,96.642,VALID,0.107441,VALID,22.5299,VALID,47,VALID,0.566406,
2010-04-30, 02:14:04,VALID,917.54,VALID,0,VALID,96.6573,VALID,0.107441,VALID,22.5086,VALID,47,VALID,0.223047,
2010-04-30, 02:15:04,VALID,917.556,VALID,0,VALID,96.6344,VALID,0,VALID,22.4891,VALID,47,VALID,0.287109,
2010-04-30, 02:16:04,VALID,917.607,VALID,0,VALID,96.6344,VALID,0.107441,VALID,22.5086,VALID,47,VALID,0,
2010-04-30, 02:17:04,VALID,917.598,VALID,0,VALID,96.6573,VALID,0.107441,VALID,22.5494,VALID,47,VALID,0.0113281,
2010-04-30, 02:18:04,VALID,917.608,VALID,0,VALID,96.5963,VALID,0.107441,VALID,22.5086,VALID,47,VALID,0.332422,
2010-04-30, 02:19:04,VALID,917.601,VALID,0,VALID,96.6192,VALID,0.107441,VALID,22.4891,VALID,47,VALID,0.151953,
2010-04-30, 02:20:04,VALID,917.643,VALID,0,VALID,96.5963,VALID,0,VALID,22.5103,VALID,47,VALID,0.130078,
2010-04-30, 02:21:04,VALID,917.678,VALID,0,VALID,96.6192,VALID,0,VALID,22.5103,VALID,47,VALID,0.248047,
2010-04-30, 02:22:04,VALID,917.661,VALID,0,VALID,96.6192,VALID,0,VALID,22.5299,VALID,47,VALID,0,
2010-04-30, 02:23:04,VALID,917.661,VALID,0,VALID,96.6344,VALID,0.107441,VALID,22.5494,VALID,47,VALID,0.0269531,
2010-04-30, 02:24:04,VALID,917.676,VALID,0,VALID,96.6344,VALID,0.107441,VALID,22.5689,VALID,47,VALID,0.441797,
2010-04-30, 02:25:04,VALID,917.714,VALID,0,VALID,96.5887,VALID,0.107441,VALID,22.5281,VALID,47,VALID,0.548828,
2010-04-30, 02:26:04,VALID,917.706,VALID,0,VALID,96.6115,VALID,0,VALID,22.5281,VALID,47,VALID,0.626562,
2010-04-30, 02:27:04,VALID,917.688,VALID,0,VALID,96.5811,VALID,0.107441,VALID,22.5477,VALID,47,VALID,0.400391,
2010-04-30, 02:28:04,VALID,917.709,VALID,0,VALID,96.5963,VALID,0.107441,VALID,22.5689,VALID,47,VALID,0.763281,
2010-04-30, 02:29:04,VALID,917.677,VALID,0,VALID,96.6115,VALID,0,VALID,22.5884,VALID,47,VALID,0.835156,
2010-04-30, 02:30:04,VALID,917.639,VALID,0,VALID,96.5811,VALID,0,VALID,22.6079,VALID,47,VALID,0.0429688,
2010-04-30, 02:31:04,VALID,917.601,VALID,0,VALID,96.5277,VALID,0,VALID,22.6079,VALID,47,VALID,0.35,
2010-04-30, 02:32:04,VALID,917.582,VALID,0,VALID,96.5201,VALID,0.107441,VALID,22.5867,VALID,47,VALID,0,
2010-04-30, 02:33:04,VALID,917.573,VALID,0,VALID,96.5048,VALID,0.107441,VALID,22.5867,VALID,47,VALID,0.0859375,
2010-04-30, 02:34:04,VALID,917.551,VALID,0,VALID,96.4591,VALID,0.107441,VALID,22.5867,VALID,47,VALID,0.555078,
2010-04-30, 02:35:04,VALID,917.532,VALID,0,VALID,96.4591,VALID,0.107441,VALID,22.6274,VALID,47,VALID,0.559375,
2010-04-30, 02:36:04,VALID,917.561,VALID,0,VALID,96.4591,VALID,0,VALID,22.6079,VALID,47,VALID,0.716406,
2010-04-30, 02:37:04,VALID,917.592,VALID,0,VALID,96.4057,VALID,0.107441,VALID,22.5672,VALID,47,VALID,0.479297,
2010-04-30, 02:38:04,VALID,917.612,VALID,0,VALID,96.3371,VALID,0,VALID,22.5689,VALID,47,VALID,0.541406,
2010-04-30, 02:39:04,VALID,917.626,VALID,0,VALID,96.3295,VALID,0,VALID,22.5689,VALID,47,VALID,0.571094,
2010-04-30, 02:40:04,VALID,917.619,VALID,0,VALID,96.2914,VALID,0.107441,VALID,22.5689,VALID,47,VALID,0.604688,
2010-04-30, 02:41:04,VALID,917.62,VALID,0,VALID,96.1999,VALID,0.107441,VALID,22.5299,VALID,47,VALID,0.749219,
2010-04-30, 02:42:04,VALID,917.627,VALID,0,VALID,96.1618,VALID,0.107441,VALID,22.5103,VALID,47,VALID,0.642578,
2010-04-30, 02:43:04,VALID,917.604,VALID,0,VALID,96.1389,VALID,0.107441,VALID,22.4713,VALID,47,VALID,0.735547,
2010-04-30, 02:44:04,VALID,917.629,VALID,0,VALID,96.1694,VALID,0,VALID,22.4518,VALID,47,VALID,1.19219,
2010-04-30, 02:45:04,VALID,917.626,VALID,0,VALID,96.2151,VALID,0,VALID,22.434,VALID,47,VALID,0.805469,
2010-04-30, 02:46:04,VALID,917.684,VALID,0,VALID,96.238,VALID,0,VALID,22.4145,VALID,47,VALID,0.641797,
2010-04-30, 02:47:04,VALID,917.702,VALID,0,VALID,96.2456,VALID,0,VALID,22.395,VALID,47,VALID,0.624219,
2010-04-30, 02:48:04,VALID,917.73,VALID,0,VALID,96.2761,VALID,0,VALID,22.4145,VALID,47,VALID,0.458203,
2010-04-30, 02:49:04,VALID,917.786,VALID,0,VALID,96.2761,VALID,0,VALID,22.4145,VALID,47,VALID,0.630859,
2010-04-30, 02:50:04,VALID,917.851,VALID,0,VALID,96.3295,VALID,0,VALID,22.3933,VALID,47,VALID,0.607031,
2010-04-30, 02:51:04,VALID,917.87,VALID,0,VALID,96.3219,VALID,0,VALID,22.4145,VALID,47,VALID,0.686328,
2010-04-30, 02:52:04,VALID,917.859,VALID,0,VALID,96.3066,VALID,0,VALID,22.4145,VALID,47,VALID,0.596484,
2010-04-30, 02:53:04,VALID,917.928,VALID,0,VALID,96.3295,VALID,0,VALID,22.434,VALID,47,VALID,0.792188,
2010-04-30, 02:54:04,VALID,917.945,VALID,0,VALID,96.3524,VALID,0,VALID,22.434,VALID,47,VALID,0.593359,
2010-04-30, 02:55:04,VALID,917.957,VALID,0,VALID,96.3981,VALID,0,VALID,22.4535,VALID,47,VALID,0.569531,
2010-04-30, 02:56:04,VALID,917.986,VALID,0,VALID,96.3905,VALID,0,VALID,22.4323,VALID,47,VALID,0.899219,
2010-04-30, 02:57:04,VALID,917.978,VALID,0,VALID,96.4286,VALID,0,VALID,22.4518,VALID,47,VALID,0.835547,
2010-04-30, 02:58:04,VALID,917.961,VALID,0,VALID,96.4286,VALID,0,VALID,22.4713,VALID,47,VALID,0.598047,
2010-04-30, 02:59:04,VALID,917.979,VALID,0,VALID,96.4057,VALID,0,VALID,22.4925,VALID,47,VALID,0.669141,
2010-04-30, 03:00:04,VALID,917.995,VALID,0,VALID,96.3676,VALID,0,VALID,22.4518,VALID,47,VALID,0.719141,
2010-04-30, 03:01:04,VALID,917.991,VALID,0,VALID,96.4057,VALID,0,VALID,22.4518,VALID,47,VALID,0.584375,
2010-04-30, 03:02:04,VALID,917.986,VALID,0,VALID,96.4057,VALID,0,VALID,22.4323,VALID,47,VALID,0.725,
2010-04-30, 03:03:04,VALID,917.991,VALID,0,VALID,96.3905,VALID,0,VALID,22.4323,VALID,47,VALID,0.953516,
2010-04-30, 03:04:04,VALID,917.989,VALID,0,VALID,96.3905,VALID,0,VALID,22.4145,VALID,47,VALID,0.776563,
2010-04-30, 03:05:04,VALID,917.992,VALID,0,VALID,96.4286,VALID,0,VALID,22.3737,VALID,47,VALID,0.609375,
2010-04-30, 03:06:04,VALID,918.011,VALID,0,VALID,96.4591,VALID,0,VALID,22.3737,VALID,47,VALID,0.559766,
2010-04-30, 03:07:04,VALID,918.012,VALID,0,VALID,96.5201,VALID,0,VALID,22.3754,VALID,47,VALID,0.626953,
2010-04-30, 03:08:04,VALID,917.976,VALID,0,VALID,96.5201,VALID,0,VALID,22.3754,VALID,47,VALID,0.498828,
2010-04-30, 03:09:04,VALID,917.995,VALID,0,VALID,96.5429,VALID,0,VALID,22.3542,VALID,47,VALID,0.650781,
2010-04-30, 03:10:04,VALID,918.031,VALID,0,VALID,96.5734,VALID,0,VALID,22.3754,VALID,47,VALID,0.598437,
2010-04-30, 03:11:04,VALID,917.99,VALID,0,VALID,96.5734,VALID,0,VALID,22.3737,VALID,47,VALID,0.729297,
2010-04-30, 03:12:04,VALID,918.005,VALID,0,VALID,96.5658,VALID,0,VALID,22.3754,VALID,47,VALID,0.927344,
2010-04-30, 03:13:04,VALID,917.968,VALID,0,VALID,96.6115,VALID,0,VALID,22.3754,VALID,47,VALID,0.953125,
2010-04-30, 03:14:04,VALID,917.985,VALID,0,VALID,96.6192,VALID,0,VALID,22.3754,VALID,47,VALID,1.19062,
2010-04-30, 03:15:04,VALID,917.956,VALID,0,VALID,96.6344,VALID,0,VALID,22.3542,VALID,47,VALID,0.730859,
2010-04-30, 03:16:04,VALID,917.956,VALID,0,VALID,96.642,VALID,0,VALID,22.3542,VALID,47,VALID,0.381641,
2010-04-30, 03:17:04,VALID,917.935,VALID,0,VALID,96.6802,VALID,0,VALID,22.3542,VALID,47,VALID,0.580469,
2010-04-30, 03:18:04,VALID,917.946,VALID,0,VALID,96.6573,VALID,0.107441,VALID,22.333,VALID,47,VALID,0.976172,
2010-04-30, 03:19:04,VALID,917.943,VALID,0,VALID,96.6649,VALID,0,VALID,22.3542,VALID,47,VALID,0.835156,
2010-04-30, 03:20:04,VALID,917.927,VALID,0,VALID,96.6802,VALID,0,VALID,22.333,VALID,47,VALID,0.718359,
2010-04-30, 03:21:04,VALID,917.914,VALID,0,VALID,96.6725,VALID,0,VALID,22.3542,VALID,47,VALID,0.398438,
2010-04-30, 03:22:04,VALID,917.855,VALID,0,VALID,96.6954,VALID,0,VALID,22.333,VALID,47,VALID,0.375781,
2010-04-30, 03:23:04,VALID,917.914,VALID,0,VALID,96.7183,VALID,0,VALID,22.3347,VALID,47,VALID,0.527734,
2010-04-30, 03:24:04,VALID,917.867,VALID,0,VALID,96.703,VALID,0,VALID,22.3542,VALID,47,VALID,0.615625,
2010-04-30, 03:25:04,VALID,917.897,VALID,0,VALID,96.7411,VALID,0,VALID,22.3542,VALID,47,VALID,0.223828,
2010-04-30, 03:26:04,VALID,917.863,VALID,0,VALID,96.7259,VALID,0,VALID,22.3347,VALID,47,VALID,0.282422,
2010-04-30, 03:27:04,VALID,917.884,VALID,0,VALID,96.7259,VALID,0,VALID,22.3542,VALID,47,VALID,0.710938,
2010-04-30, 03:28:04,VALID,917.866,VALID,0,VALID,96.7411,VALID,0,VALID,22.3347,VALID,47,VALID,0.418359,
2010-04-30, 03:29:04,VALID,917.865,VALID,0,VALID,96.7564,VALID,0,VALID,22.3347,VALID,47,VALID,0.175391,
2010-04-30, 03:30:04,VALID,917.855,VALID,0,VALID,96.7564,VALID,0,VALID,22.3542,VALID,47,VALID,0,
2010-04-30, 03:31:04,VALID,917.815,VALID,0,VALID,96.7793,VALID,0,VALID,22.372,VALID,47,VALID,0,
2010-04-30, 03:32:04,VALID,917.82,VALID,0,VALID,96.764,VALID,0,VALID,22.3933,VALID,47,VALID,0,
2010-04-30, 03:33:04,VALID,917.831,VALID,0,VALID,96.7716,VALID,0.107441,VALID,22.372,VALID,47,VALID,0,
2010-04-30, 03:34:04,VALID,917.821,VALID,0,VALID,96.7716,VALID,0,VALID,22.3933,VALID,47,VALID,0.382031,
2010-04-30, 03:35:04,VALID,917.842,VALID,0,VALID,96.7793,VALID,0.107441,VALID,22.372,VALID,47,VALID,0.437891,
2010-04-30, 03:36:04,VALID,917.85,VALID,0,VALID,96.8021,VALID,0,VALID,22.3933,VALID,47,VALID,0.145313,
2010-04-30, 03:37:04,VALID,917.843,VALID,0,VALID,96.764,VALID,0.107441,VALID,22.3933,VALID,47,VALID,0.321875,
2010-04-30, 03:38:04,VALID,917.853,VALID,0,VALID,96.7869,VALID,0,VALID,22.3933,VALID,47,VALID,0.24375,
2010-04-30, 03:39:04,VALID,917.889,VALID,0,VALID,96.7488,VALID,0.107441,VALID,22.4128,VALID,47,VALID,0.367969,
2010-04-30, 03:40:04,VALID,917.873,VALID,0,VALID,96.7564,VALID,0,VALID,22.3933,VALID,47,VALID,0,
2010-04-30, 03:41:04,VALID,917.831,VALID,0,VALID,96.7411,VALID,0,VALID,22.372,VALID,47,VALID,0.2,
2010-04-30, 03:42:04,VALID,917.789,VALID,0,VALID,96.7488,VALID,0,VALID,22.3933,VALID,47,VALID,0.0914062,
2010-04-30, 03:43:04,VALID,917.768,VALID,0,VALID,96.7335,VALID,0,VALID,22.4128,VALID,47,VALID,0.350781,